Weather History for KLTS - April, 2014

Change the Weather History Date:

Tuesday, April 15, 2014

  Actual Average Record
Temperature  
Mean Temperature 48 °F -  
Max Temperature 66 °F 73 °F 91 °F (2004)
Min Temperature 31 °F 47 °F 31 °F (2014)
Degree Days  
Heating Degree Days 16    
Moisture  
Dew Point 18 °F    
Average Humidity 30    
Maximum Humidity 55    
Minimum Humidity 16    
Precipitation  
Precipitation 0.00 in - - ()
Sea Level Pressure  
Sea Level Pressure 30.18 in    
Wind  
Wind Speed 9 mph (SW)    
Max Wind Speed 17 mph    
Max Gust Speed 23 mph    
Visibility 10 miles    
Events      
Averages and records for this station are not official NWS values.
T = Trace of Precipitation, MM = Missing Value Source: NWS Daily Summary

Daily Weather History Graph

Daily Weather History Graph

Search for Another Location

Airport or City:

Trip Planner

Search our weather history database for the weather conditions in past years. The results will help you decide how hot, cold, wet, or windy it might be!

Date:

Astronomy

Apr. 15, 2014 Rise Set
Actual Time 7:05 AM CDT 8:09 PM CDT
Civil Twilight 6:39 AM CDT 8:35 PM CDT
Nautical Twilight 6:08 AM CDT 9:06 PM CDT
Astronomical Twilight 5:36 AM CDT 9:38 PM CDT
Moon 8:50 PM CDT (4/15) 7:14 AM CDT (4/15)
Length of Visible Light 13h 55m
Length of Day
13h 03m
Full, 100% of the Moon is Illuminated
Apr 15
Full
Apr 22
Last Quarter
Apr 29
New
May 6
First Quarter
May 14
Full

Hourly Weather History & Observations

Time (CDT) Temp. Windchill Dew Point Humidity Pressure Visibility Wind Dir Wind Speed Gust Speed Precip Events Conditions
12:58 AM 36.7 °F 30.5 °F 13.5 °F 39% 30.32 in 10.0 mi NW 8.1 mph - N/A   Clear
1:58 AM 35.8 °F 30.1 °F 14.4 °F 42% 30.31 in 10.0 mi NW 6.9 mph - N/A   Clear
2:58 AM 34.7 °F 29.6 °F 14.9 °F 44% 30.31 in 10.0 mi WNW 5.8 mph - N/A   Clear
3:58 AM 33.4 °F 26.6 °F 15.3 °F 47% 30.32 in 10.0 mi WNW 8.1 mph - N/A   Clear
4:58 AM 31.8 °F 25.4 °F 15.8 °F 52% 30.30 in 10.0 mi WNW 6.9 mph - N/A   Clear
5:58 AM 31.6 °F 25.1 °F 16.3 °F 53% 30.30 in 10.0 mi NW 6.9 mph - N/A   Clear
6:58 AM 31.3 °F 24.7 °F 16.9 °F 55% 30.30 in 10.0 mi NW 6.9 mph - N/A   Clear
7:58 AM 32.5 °F 28.1 °F 17.4 °F 54% 30.32 in 10.0 mi West 4.6 mph - N/A   Clear
8:58 AM 38.3 °F 35.9 °F 19.0 °F 46% 30.31 in 10.0 mi NW 3.5 mph - N/A   Clear
9:58 AM 45.7 °F 40.2 °F 20.3 °F 37% 30.32 in 10.0 mi West 11.5 mph - N/A   Clear
10:58 AM 52.7 °F - 19.9 °F 28% 30.30 in 10.0 mi WSW 8.1 mph - N/A   Clear
11:58 AM 55.6 °F - 18.5 °F 23% 30.28 in 10.0 mi South 9.2 mph - N/A   Clear
12:58 PM 58.1 °F - 18.3 °F 21% 30.25 in 10.0 mi South 10.4 mph - N/A   Clear
1:58 PM 62.2 °F - 20.1 °F 20% 30.20 in 10.0 mi SSW 12.7 mph - N/A   Clear
2:58 PM 63.3 °F - 19.6 °F 19% 30.14 in 10.0 mi South 11.5 mph 17.3 mph N/A   Clear
3:43 PM 64.4 °F - 19.4 °F 18% 30.11 in 10.0 mi South 16.1 mph 19.6 mph N/A   Clear
3:58 PM 64.9 °F - 19.4 °F 17% 30.11 in 10.0 mi South 17.3 mph 23.0 mph N/A   Clear
4:32 PM 66.2 °F - 19.4 °F 17% 30.08 in 10.0 mi SSW 12.7 mph 19.6 mph N/A   Clear
4:58 PM 66.0 °F - 18.9 °F 16% 30.07 in 10.0 mi SSW 13.8 mph 21.9 mph N/A   Clear
4:59 PM 66.2 °F - 19.4 °F 17% 30.07 in 10.0 mi South 12.7 mph 21.9 mph N/A   Clear
5:58 PM 65.8 °F - 18.7 °F 16% 30.04 in 10.0 mi South 16.1 mph 21.9 mph N/A   Clear
6:58 PM 64.6 °F - 17.6 °F 16% 30.04 in 10.0 mi South 16.1 mph 23.0 mph N/A   Clear
7:58 PM 60.3 °F - 17.4 °F 19% 30.02 in 10.0 mi SSE 11.5 mph - N/A   Clear
8:58 PM 53.8 °F - 15.4 °F 22% 30.01 in 10.0 mi SE 12.7 mph - N/A   Clear
9:58 PM 50.0 °F - 16.7 °F 27% 30.01 in 10.0 mi SE 10.4 mph - N/A   Clear
10:58 PM 51.1 °F - 15.8 °F 25% 30.00 in 10.0 mi SSE 12.7 mph - N/A   Clear
11:58 PM 51.3 °F - 15.8 °F 25% 29.98 in 10.0 mi SSE 12.7 mph - N/A   Clear